Time,TemperatureF,DewpointF,PressureIn,WindDirection,WindDirectionDegrees,WindSpeedMPH,WindSpeedGustMPH,Humidity,HourlyPrecipIn,Conditions,Clouds,dailyrainin,SoftwareType,DateUTC
2013-06-22 00:12:00,64.0,63.4,29.96,West,270,0.0,-999.0,98,-99.99,,,0.00,Acu-Link.com,2013-06-22 04:12:00,
2013-06-22 00:27:00,63.3,62.7,29.96,WSW,247,0.0,-999.0,98,-99.99,,,0.00,Acu-Link.com,2013-06-22 04:27:00,
2013-06-22 00:43:00,63.1,62.5,29.95,WNW,292,0.0,-999.0,98,-99.99,,,0.00,Acu-Link.com,2013-06-22 04:43:00,
2013-06-22 00:58:00,62.4,61.8,29.96,West,270,0.0,-999.0,98,-99.99,,,0.00,Acu-Link.com,2013-06-22 04:58:00,
2013-06-22 01:13:00,61.7,61.1,29.95,WNW,292,0.0,-999.0,98,-99.99,,,0.00,Acu-Link.com,2013-06-22 05:13:00,
2013-06-22 01:28:00,61.2,60.6,29.95,NE,45,0.0,-999.0,98,-99.99,,,0.00,Acu-Link.com,2013-06-22 05:28:00,
2013-06-22 01:43:00,60.8,60.2,29.94,East,90,0.0,-999.0,98,-99.99,,,0.00,Acu-Link.com,2013-06-22 05:43:00,
2013-06-22 01:58:00,60.3,59.7,29.94,NE,45,0.0,-999.0,98,-99.99,,,0.00,Acu-Link.com,2013-06-22 05:58:00,
2013-06-22 02:13:00,59.7,59.1,29.94,NNW,337,0.0,-999.0,98,-99.99,,,0.00,Acu-Link.com,2013-06-22 06:13:00,
2013-06-22 02:28:00,59.0,58.4,29.94,SW,225,0.0,-999.0,98,-99.99,,,0.00,Acu-Link.com,2013-06-22 06:28:00,
2013-06-22 02:43:00,58.6,58.0,29.95,WSW,247,0.0,-999.0,98,-99.99,,,0.00,Acu-Link.com,2013-06-22 06:43:00,
2013-06-22 02:59:00,58.1,57.5,29.95,NE,45,0.0,-999.0,98,-99.99,,,0.00,Acu-Link.com,2013-06-22 06:59:00,
2013-06-22 03:14:00,57.7,57.1,29.96,NE,45,0.0,-999.0,98,-99.99,,,0.00,Acu-Link.com,2013-06-22 07:14:00,
2013-06-22 03:29:00,57.4,56.8,29.95,NW,315,0.0,-999.0,98,-99.99,,,0.00,Acu-Link.com,2013-06-22 07:29:00,
2013-06-22 03:44:00,57.2,56.6,29.94,South,180,0.0,-999.0,98,-99.99,,,0.00,Acu-Link.com,2013-06-22 07:44:00,
2013-06-22 03:59:00,56.8,56.2,29.94,WNW,292,0.0,-999.0,98,-99.99,,,0.00,Acu-Link.com,2013-06-22 07:59:00,
2013-06-22 04:15:00,56.8,56.2,29.94,West,270,0.0,-999.0,98,-99.99,,,0.00,Acu-Link.com,2013-06-22 08:15:00,
2013-06-22 04:30:00,56.5,55.9,29.95,West,270,0.0,-999.0,98,-99.99,,,0.00,Acu-Link.com,2013-06-22 08:30:00,
2013-06-22 04:46:00,56.1,55.5,29.94,West,270,0.0,-999.0,98,-99.99,,,0.00,Acu-Link.com,2013-06-22 08:46:00,
2013-06-22 05:01:00,55.8,55.2,29.94,WNW,292,0.0,-999.0,98,-99.99,,,0.00,Acu-Link.com,2013-06-22 09:01:00,
2013-06-22 05:16:00,55.4,54.8,29.94,NNE,22,0.0,-999.0,98,-99.99,,,0.00,Acu-Link.com,2013-06-22 09:16:00,
2013-06-22 05:31:00,55.0,54.4,29.95,NNW,337,0.0,-999.0,98,-99.99,,,0.00,Acu-Link.com,2013-06-22 09:31:00,
2013-06-22 05:46:00,55.0,54.4,29.96,West,270,0.0,-999.0,98,-99.99,,,0.00,Acu-Link.com,2013-06-22 09:46:00,
2013-06-22 06:01:00,55.4,54.8,29.96,North,0,0.0,-999.0,98,-99.99,,,0.00,Acu-Link.com,2013-06-22 10:01:00,
2013-06-22 06:16:00,57.0,56.4,29.96,West,270,0.0,-999.0,98,-99.99,,,0.00,Acu-Link.com,2013-06-22 10:16:00,
2013-06-22 06:31:00,59.0,58.4,29.95,NNE,22,0.0,-999.0,98,-99.99,,,0.00,Acu-Link.com,2013-06-22 10:31:00,
2013-06-22 06:46:00,61.0,60.4,29.95,SSE,157,0.0,-999.0,98,-99.99,,,0.00,Acu-Link.com,2013-06-22 10:46:00,
2013-06-22 07:02:00,62.8,62.2,29.94,SW,225,0.0,-999.0,98,-99.99,,,0.00,Acu-Link.com,2013-06-22 11:02:00,
2013-06-22 07:17:00,64.2,63.6,29.95,SW,225,0.0,-999.0,98,-99.99,,,0.00,Acu-Link.com,2013-06-22 11:17:00,
2013-06-22 07:32:00,65.8,65.2,29.95,West,270,0.0,-999.0,98,-99.99,,,0.00,Acu-Link.com,2013-06-22 11:32:00,
2013-06-22 07:47:00,66.9,66.3,29.95,East,90,0.0,-999.0,98,-99.99,,,0.00,Acu-Link.com,2013-06-22 11:47:00,
2013-06-22 08:02:00,68.5,67.9,29.96,ESE,112,0.0,-999.0,98,-99.99,,,0.00,Acu-Link.com,2013-06-22 12:02:00,
2013-06-22 08:17:00,70.0,69.4,29.95,South,180,2.2,-999.0,98,-99.99,,,0.00,Acu-Link.com,2013-06-22 12:17:00,
2013-06-22 08:32:00,70.9,70.3,29.94,East,90,0.0,-999.0,98,-99.99,,,0.00,Acu-Link.com,2013-06-22 12:32:00,
2013-06-22 08:47:00,70.9,70.3,29.94,West,270,0.0,-999.0,98,-99.99,,,0.00,Acu-Link.com,2013-06-22 12:47:00,
2013-06-22 09:02:00,71.8,71.2,29.95,WNW,292,0.0,-999.0,98,-99.99,,,0.00,Acu-Link.com,2013-06-22 13:02:00,
2013-06-22 09:18:00,73.2,72.6,29.95,WSW,247,1.7,-999.0,98,-99.99,,,0.00,Acu-Link.com,2013-06-22 13:18:00,
2013-06-22 09:33:00,73.0,72.4,29.95,SE,135,1.1,-999.0,98,-99.99,,,0.00,Acu-Link.com,2013-06-22 13:33:00,
2013-06-22 09:48:00,75.2,74.6,29.94,SE,135,0.0,-999.0,98,-99.99,,,0.00,Acu-Link.com,2013-06-22 13:48:00,
2013-06-22 10:03:00,75.6,75.0,29.94,SW,225,2.2,-999.0,98,-99.99,,,0.00,Acu-Link.com,2013-06-22 14:03:00,
2013-06-22 10:18:00,75.6,75.0,29.95,NW,315,1.7,-999.0,98,-99.99,,,0.00,Acu-Link.com,2013-06-22 14:18:00,
2013-06-22 10:33:00,77.0,76.4,29.95,ENE,67,1.1,-999.0,98,-99.99,,,0.00,Acu-Link.com,2013-06-22 14:33:00,
2013-06-22 10:48:00,78.3,77.7,29.94,South,180,1.1,-999.0,98,-99.99,,,0.00,Acu-Link.com,2013-06-22 14:48:00,
2013-06-22 11:03:00,79.0,78.4,29.94,SW,225,1.1,-999.0,98,-99.99,,,0.00,Acu-Link.com,2013-06-22 15:03:00,
2013-06-22 11:18:00,80.6,80.0,29.94,SE,135,1.7,-999.0,98,-99.99,,,0.00,Acu-Link.com,2013-06-22 15:18:00,
2013-06-22 11:33:00,80.6,80.0,29.95,SW,225,2.2,-999.0,98,-99.99,,,0.00,Acu-Link.com,2013-06-22 15:33:00,
2013-06-22 11:49:00,81.3,80.7,29.93,NNE,22,2.2,-999.0,98,-99.99,,,0.00,Acu-Link.com,2013-06-22 15:49:00,
2013-06-22 12:04:00,81.1,80.5,29.94,East,90,0.0,-999.0,98,-99.99,,,0.00,Acu-Link.com,2013-06-22 16:04:00,
2013-06-22 12:19:00,83.5,82.9,29.94,WNW,292,0.0,-999.0,98,-99.99,,,0.00,Acu-Link.com,2013-06-22 16:19:00,
2013-06-22 12:34:00,82.8,82.2,29.94,SSE,157,0.0,-999.0,98,-99.99,,,0.00,Acu-Link.com,2013-06-22 16:34:00,
2013-06-22 12:49:00,83.3,82.7,29.95,West,270,1.7,-999.0,98,-99.99,,,0.00,Acu-Link.com,2013-06-22 16:49:00,
2013-06-22 13:04:00,84.2,83.6,29.93,SSW,202,2.2,-999.0,98,-99.99,,,0.00,Acu-Link.com,2013-06-22 17:04:00,
2013-06-22 13:19:00,85.1,84.5,29.91,NNE,22,2.2,-999.0,98,-99.99,,,0.00,Acu-Link.com,2013-06-22 17:19:00,
2013-06-22 13:34:00,84.2,83.6,29.92,SSE,157,2.2,-999.0,98,-99.99,,,0.00,Acu-Link.com,2013-06-22 17:34:00,
2013-06-22 13:49:00,85.1,84.5,29.90,SE,135,3.2,-999.0,98,-99.99,,,0.00,Acu-Link.com,2013-06-22 17:49:00,
2013-06-22 14:05:00,84.6,84.0,29.90,NW,315,2.7,-999.0,98,-99.99,,,0.00,Acu-Link.com,2013-06-22 18:05:00,
2013-06-22 14:20:00,86.0,85.4,29.90,SE,135,2.7,-999.0,98,-99.99,,,0.00,Acu-Link.com,2013-06-22 18:20:00,
2013-06-22 14:35:00,86.0,85.4,29.90,SW,225,3.2,-999.0,98,-99.99,,,0.00,Acu-Link.com,2013-06-22 18:35:00,
2013-06-22 14:50:00,85.5,84.9,29.89,South,180,2.7,-999.0,98,-99.99,,,0.00,Acu-Link.com,2013-06-22 18:50:00,
2013-06-22 15:05:00,86.4,85.8,29.90,WSW,247,3.7,-999.0,98,-99.99,,,0.00,Acu-Link.com,2013-06-22 19:05:00,
2013-06-22 15:20:00,85.3,84.7,29.89,SSW,202,1.7,-999.0,98,-99.99,,,0.00,Acu-Link.com,2013-06-22 19:20:00,
2013-06-22 15:35:00,85.3,84.7,29.90,SSW,202,1.7,-999.0,98,-99.99,,,0.00,Acu-Link.com,2013-06-22 19:35:00,
2013-06-22 15:50:00,86.2,85.6,29.87,ESE,112,0.0,-999.0,98,-99.99,,,0.00,Acu-Link.com,2013-06-22 19:50:00,
2013-06-22 16:05:00,85.3,84.7,29.87,SW,225,2.7,-999.0,98,-99.99,,,0.00,Acu-Link.com,2013-06-22 20:05:00,
2013-06-22 16:21:00,86.2,85.6,29.87,WSW,247,0.0,-999.0,98,-99.99,,,0.00,Acu-Link.com,2013-06-22 20:21:00,
2013-06-22 16:36:00,86.4,85.8,29.85,SW,225,1.7,-999.0,98,-99.99,,,0.00,Acu-Link.com,2013-06-22 20:36:00,
2013-06-22 16:51:00,85.5,84.9,29.83,NE,45,0.0,-999.0,98,-99.99,,,0.00,Acu-Link.com,2013-06-22 20:51:00,
2013-06-22 17:06:00,86.2,85.6,29.84,ESE,112,1.1,-999.0,98,-99.99,,,0.00,Acu-Link.com,2013-06-22 21:06:00,
2013-06-22 17:21:00,85.3,84.7,29.84,WSW,247,1.1,-999.0,98,-99.99,,,0.00,Acu-Link.com,2013-06-22 21:21:00,
2013-06-22 17:36:00,86.5,85.9,29.82,North,0,2.7,-999.0,98,-99.99,,,0.00,Acu-Link.com,2013-06-22 21:36:00,
2013-06-22 17:51:00,85.5,84.9,29.84,ENE,67,1.7,-999.0,98,-99.99,,,0.00,Acu-Link.com,2013-06-22 21:51:00,
2013-06-22 18:06:00,84.2,83.6,29.82,NNE,22,0.0,-999.0,98,-99.99,,,0.00,Acu-Link.com,2013-06-22 22:06:00,
2013-06-22 18:21:00,83.3,82.7,29.81,SSE,157,4.2,-999.0,98,-99.99,,,0.00,Acu-Link.com,2013-06-22 22:21:00,
2013-06-22 18:37:00,83.3,82.7,29.82,SW,225,0.0,-999.0,98,-99.99,,,0.00,Acu-Link.com,2013-06-22 22:37:00,
2013-06-22 18:52:00,82.8,82.2,29.82,SSE,157,0.0,-999.0,98,-99.99,,,0.00,Acu-Link.com,2013-06-22 22:52:00,
2013-06-22 19:07:00,82.2,81.6,29.82,SW,225,0.0,-999.0,98,-99.99,,,0.00,Acu-Link.com,2013-06-22 23:07:00,
2013-06-22 19:22:00,80.4,79.8,29.81,ESE,112,1.7,-999.0,98,-99.99,,,0.00,Acu-Link.com,2013-06-22 23:22:00,
2013-06-22 19:37:00,78.8,78.2,29.83,ENE,67,1.7,-999.0,98,-99.99,,,0.00,Acu-Link.com,2013-06-22 23:37:00,
2013-06-22 19:52:00,77.7,77.1,29.83,SSW,202,1.7,-999.0,98,-99.99,,,0.00,Acu-Link.com,2013-06-22 23:52:00,
2013-06-22 20:07:00,76.6,76.0,29.84,NNE,22,0.0,-999.0,98,-99.99,,,0.00,Acu-Link.com,2013-06-23 00:07:00,
2013-06-22 20:22:00,75.6,75.0,29.83,WSW,247,0.0,-999.0,98,-99.99,,,0.00,Acu-Link.com,2013-06-23 00:22:00,
2013-06-22 20:37:00,74.7,74.1,29.84,SSE,157,1.1,-999.0,98,-99.99,,,0.00,Acu-Link.com,2013-06-23 00:37:00,
2013-06-22 20:53:00,74.1,73.5,29.84,North,0,0.0,-999.0,98,-99.99,,,0.00,Acu-Link.com,2013-06-23 00:53:00,
2013-06-22 21:08:00,73.0,72.4,29.85,ENE,67,0.0,-999.0,98,-99.99,,,0.00,Acu-Link.com,2013-06-23 01:08:00,
2013-06-22 21:23:00,72.9,72.3,29.86,East,90,1.1,-999.0,98,-99.99,,,0.00,Acu-Link.com,2013-06-23 01:23:00,
2013-06-22 21:38:00,72.5,71.9,29.86,SSE,157,0.0,-999.0,98,-99.99,,,0.00,Acu-Link.com,2013-06-23 01:38:00,
2013-06-22 21:53:00,72.3,71.7,29.87,NNE,22,0.0,-999.0,98,-99.99,,,0.00,Acu-Link.com,2013-06-23 01:53:00,
2013-06-22 22:08:00,72.1,71.5,29.88,NNE,22,3.2,-999.0,98,-99.99,,,0.00,Acu-Link.com,2013-06-23 02:08:00,
2013-06-22 22:23:00,71.6,71.0,29.88,West,270,0.0,-999.0,98,-99.99,,,0.00,Acu-Link.com,2013-06-23 02:23:00,
2013-06-22 22:38:00,71.2,70.6,29.88,West,270,0.0,-999.0,98,-99.99,,,0.00,Acu-Link.com,2013-06-23 02:38:00,
2013-06-22 22:53:00,70.3,69.7,29.86,SSE,157,0.0,-999.0,98,-99.99,,,0.00,Acu-Link.com,2013-06-23 02:53:00,
2013-06-22 23:08:00,69.4,68.8,29.88,SW,225,0.0,-999.0,98,-99.99,,,0.00,Acu-Link.com,2013-06-23 03:08:00,
2013-06-22 23:24:00,68.7,68.1,29.88,SSW,202,0.0,-999.0,98,-99.99,,,0.00,Acu-Link.com,2013-06-23 03:24:00,
2013-06-22 23:39:00,68.0,67.4,29.88,WSW,247,0.0,-999.0,98,-99.99,,,0.00,Acu-Link.com,2013-06-23 03:39:00,
2013-06-22 23:54:00,67.5,66.9,29.88,ESE,112,0.0,-999.0,98,-99.99,,,0.00,Acu-Link.com,2013-06-23 03:54:00,